Printer-friendly version

IAU Minor Planet Center

Minor Planet Center

(69) Hesperia

Orbital Elements

The following orbital elements are taken from MPC 27086:
   (69) Hesperia
Epoch 2005 Jan. 30.0 TT = JDT 2453400.5                 Goffin
M  22.64517              (2000.0)            P               Q
n   0.19156548     Peri.  290.01350     -0.42472230     -0.90522328
a   2.9802856      Node   185.17981     +0.87639768     -0.40737183
e   0.1649852      Incl.    8.58884     +0.22702000     -0.12090911
P   5.15           H    7.05          G   0.19           U   1
From 449 observations at 69 oppositions, 1861-1993, mean residual 1".01.
An explanation of the orbital elements is available.

These orbital elements are also available in forms suitable for loading into a number of popular planetarium-type software programs.


Ephemeris

The following ephemeris is at intervals of five days. A daily ephemeris covering the same time interval is also available.

Personalized ephemerides for this object (and others) can be generated using the MPES.

Date    TT    R. A. (2000) Decl.     Delta      r     Elong.  Phase     V
2005 01 01    10 30.01   +00 26.5    1.865    2.519   121.2    19.5    11.3
2005 01 06    10 30.45   +00 20.7    1.815    2.523   126.1    18.4    11.3
2005 01 11    10 30.23   +00 20.0    1.769    2.526   131.1    17.1    11.2
2005 01 16    10 29.38   +00 24.5    1.726    2.530   136.3    15.6    11.1
2005 01 21    10 27.90   +00 34.3    1.688    2.534   141.7    13.9    11.0
2005 01 26    10 25.85   +00 49.6    1.654    2.538   147.2    12.1    10.9
2005 01 31    10 23.27   +01 10.0    1.626    2.543   152.8    10.2    10.8
2005 02 05    10 20.24   +01 35.5    1.605    2.547   158.4     8.2    10.7
2005 02 10    10 16.85   +02 05.4    1.589    2.552   163.9     6.2    10.5
2005 02 15    10 13.22   +02 39.1    1.580    2.557   168.9     4.3    10.4
2005 02 20    10 09.48   +03 15.6    1.578    2.562   172.2     3.0    10.4
2005 02 25    10 05.77   +03 54.1    1.584    2.567   171.5     3.3    10.4
2005 03 02    10 02.21   +04 33.6    1.595    2.572   167.4     4.8    10.5
2005 03 07    09 58.92   +05 13.0    1.614    2.577   162.3     6.7    10.6
2005 03 12    09 56.01   +05 51.4    1.640    2.583   156.8     8.7    10.7
2005 03 17    09 53.58   +06 27.9    1.671    2.588   151.3    10.6    10.9
2005 03 22    09 51.70   +07 01.9    1.709    2.594   145.9    12.4    11.0
2005 03 27    09 50.41   +07 32.7    1.751    2.600   140.6    14.1    11.1
2005 04 01    09 49.74   +08 00.0    1.799    2.606   135.4    15.6    11.2
2005 04 06    09 49.69   +08 23.6    1.850    2.612   130.4    17.0    11.3
2005 04 11    09 50.27   +08 43.2    1.906    2.619   125.5    18.1    11.4
2005 04 16    09 51.45   +08 58.8    1.965    2.625   120.8    19.2    11.5
2005 04 21    09 53.22   +09 10.4    2.027    2.632   116.3    20.0    11.6
2005 04 26    09 55.54   +09 18.1    2.091    2.638   112.0    20.7    11.7
2005 05 01    09 58.37   +09 22.0    2.157    2.645   107.8    21.3    11.8

Back to Bright Minor Planets

Astronomical Headlines Index

MPC


Valid HTML 4.01!